DW8545 Weather Reports


Display with metric or nautical units.
time (UTC)temp
F
wind
direction
speed
MPH
gust
MPH
rain 1hr
in
rain 24hr
in
rain mn
in
humidity
%
barometer
mb
20260906231019 78 0 0.0 2.0 0.00 0.00 0.00 36 1023.0
20260906230520 78 279 0.0 2.0 0.00 0.00 0.00 33 1023.1
20260906230036 78 0 0.0 2.0 0.00 0.00 0.00 33 1023.1
20260906225518 78 279 0.0 4.0 0.00 0.00 0.00 33 1023.2
20260906225023 78 279 1.0 4.0 0.00 0.00 0.00 34 1023.2
20260906224536 78 0 0.0 5.0 0.00 0.00 0.00 32 1023.3
20260906224020 78 0 0.0 5.0 0.00 0.00 0.00 33 1023.2
20260906223520 78 225 1.0 5.0 0.00 0.00 0.00 33 1023.4
20260906223036 78 271 1.0 3.0 0.00 0.00 0.00 35 1023.4
20260906222519 79 271 1.0 3.0 0.00 0.00 0.00 32 1023.4
20260906222021 79 271 1.0 2.0 0.00 0.00 0.00 32 1023.6
20260906221537 79 0 1.0 5.0 0.00 0.00 0.00 31 1023.6
20260906221021 79 271 1.0 6.0 0.00 0.00 0.00 31 1023.7
20260906220518 79 230 1.0 6.0 0.00 0.00 0.00 31 1023.8
20260906220036 79 269 2.0 8.0 0.00 0.00 0.00 30 1023.9
20260906215518 79 232 2.0 8.0 0.00 0.00 0.00 31 1023.9
20260906215017 79 213 1.0 3.0 0.00 0.00 0.00 31 1023.9
20260906214537 79 246 1.0 4.0 0.00 0.00 0.00 30 1023.9
20260906214017 79 234 0.0 4.0 0.00 0.00 0.00 32 1023.9
20260906213520 79 238 1.0 4.0 0.00 0.00 0.00 30 1024.0
20260906213035 80 209 1.0 6.0 0.00 0.00 0.00 29 1024.0
20260906212517 80 281 1.0 6.0 0.00 0.00 0.00 30 1023.9
20260906212020 80 281 2.0 7.0 0.00 0.00 0.00 30 1023.9
20260906211542 79 274 2.0 7.0 0.00 0.00 0.00 31 1024.0
20260906211017 79 269 1.0 4.0 0.00 0.00 0.00 30 1024.0
20260906210520 79 271 1.0 4.0 0.00 0.00 0.00 31 1024.0
20260906210036 79 279 2.0 3.0 0.00 0.00 0.00 31 1024.1
20260906205516 80 53 1.0 3.0 0.00 0.00 0.00 30 1024.0
20260906205020 80 246 1.0 3.0 0.00 0.00 0.00 29 1024.0
20260906204556 80 300 1.0 6.0 0.00 0.00 0.00 29 1023.9
20260906204016 80 282 2.0 6.0 0.00 0.00 0.00 29 1024.0
20260906203518 81 220 1.0 6.0 0.00 0.00 0.00 29 1024.1
20260906203035 81 257 1.0 4.0 0.00 0.00 0.00 29 1024.0
20260906202520 81 232 1.0 8.0 0.00 0.00 0.00 29 1024.0
20260906202018 81 272 1.0 8.0 0.00 0.00 0.00 29 1024.2
20260906201543 81 279 2.0 8.0 0.00 0.00 0.00 29 1024.1
20260906201019 81 270 1.0 8.0 0.00 0.00 0.00 29 1024.2
20260906200517 81 275 2.0 6.0 0.00 0.00 0.00 28 1024.2
20260906200035 80 31 1.0 5.0 0.00 0.00 0.00 29 1024.2
20260906195518 80 295 2.0 5.0 0.00 0.00 0.00 31 1024.3
20260906195019 79 281 1.0 5.0 0.00 0.00 0.00 33 1024.3
20260906194537 79 280 1.0 9.0 0.00 0.00 0.00 32 1024.4
20260906194017 79 310 2.0 8.0 0.00 0.00 0.00 33 1024.4
20260906193518 78 227 1.0 5.0 0.00 0.00 0.00 34 1024.6
20260906193037 78 323 1.0 7.0 0.00 0.00 0.00 34 1024.6
20260906192519 78 281 2.0 7.0 0.00 0.00 0.00 31 1024.6
20260906192018 78 333 3.0 6.0 0.00 0.00 0.00 33 1024.7
20260906191536 78 279 2.0 4.0 0.00 0.00 0.00 33 1024.8
20260906191018 78 285 1.0 7.0 0.00 0.00 0.00 34 1024.8
20260906190520 78 214 2.0 7.0 0.00 0.00 0.00 33 1025.0
20260906190042 78 281 3.0 12.0 0.00 0.00 0.00 33 1024.9
20260906185520 78 240 3.0 12.0 0.00 0.00 0.00 32 1025.0
20260906185020 78 277 5.0 11.0 0.00 0.00 0.00 31 1025.0
20260906184536 78 298 3.0 8.0 0.00 0.00 0.00 33 1025.1
20260906184019 77 0 1.0 4.0 0.00 0.00 0.00 31 1025.2
20260906183517 78 304 1.0 9.0 0.00 0.00 0.00 31 1025.2
20260906183037 78 265 1.0 9.0 0.00 0.00 0.00 29 1025.4
20260906182519 78 284 3.0 9.0 0.00 0.00 0.00 30 1025.3
20260906182019 78 284 1.0 7.0 0.00 0.00 0.00 32 1025.4
20260906181535 78 269 3.0 6.0 0.00 0.00 0.00 32 1025.5
20260906181016 77 330 1.0 5.0 0.00 0.00 0.00 33 1025.5
20260906180520 77 290 1.0 5.0 0.00 0.00 0.00 32 1025.7
20260906180055 77 275 2.0 7.0 0.00 0.00 0.00 34 1025.7
20260906175524 76 309 1.0 7.0 0.00 0.00 0.00 34 1025.8
20260906175019 76 281 1.0 7.0 0.00 0.00 0.00 30 1025.8
20260906174537 75 282 0.0 8.0 0.00 0.00 0.00 32 1025.8
20260906174018 75 0 2.0 8.0 0.00 0.00 0.00 32 1025.9
20260906173517 75 176 0.0 4.0 0.00 0.00 0.00 31 1026.0
20260906173036 75 269 0.0 4.0 0.00 0.00 0.00 32 1026.0
20260906172516 75 284 1.0 3.0 0.00 0.00 0.00 33 1026.1
20260906172016 75 0 0.0 7.0 0.00 0.00 0.00 32 1026.2
20260906171536 74 280 2.0 7.0 0.00 0.00 0.00 30 1026.2
20260906171019 74 227 0.0 2.0 0.00 0.00 0.00 29 1026.1
20260906170521 74 0 0.0 4.0 0.00 0.00 0.00 31 1026.1
20260906170042 74 267 0.0 4.0 0.00 0.00 0.00 30 1026.1
20260906165520 73 269 1.0 4.0 0.00 0.00 0.00 30 1026.1
20260906165019 72 269 0.0 4.0 0.00 0.00 0.00 30 1026.2
20260906164535 71 232 1.0 3.0 0.00 0.00 0.00 32 1026.3
20260906164019 70 242 1.0 3.0 0.00 0.00 0.00 34 1026.2
20260906163519 69 0 0.0 2.0 0.00 0.00 0.00 38 1026.2
20260906163042 68 0 0.0 2.0 0.00 0.00 0.00 34 1026.2
20260906162517 68 0 0.0 2.0 0.00 0.00 0.00 39 1026.2
20260906162018 67 11 0.0 2.0 0.00 0.00 0.00 41 1026.1
20260906161536 66 352 1.0 2.0 0.00 0.00 0.00 42 1026.2
20260906161018 65 0 0.0 2.0 0.00 0.00 0.00 48 1026.2
20260906160518 65 24 0.0 3.0 0.00 0.00 0.00 49 1026.4
20260906160039 64 24 0.0 3.0 0.00 0.00 0.00 46 1026.4
20260906155523 64 360 1.0 3.0 0.00 0.00 0.00 47 1026.4
20260906155017 62 20 1.0 2.0 0.00 0.00 0.00 51 1026.4
20260906154537 61 24 1.0 2.0 0.00 0.00 0.00 52 1026.4
20260906154020 59 24 0.0 2.0 0.00 0.00 0.00 57 1026.5
20260906153519 58 0 0.0 0.0 0.00 0.00 0.00 61 1026.5
20260906153035 57 0 0.0 0.0 0.00 0.00 0.00 61 1026.5
20260906152516 57 0 0.0 0.0 0.00 0.00 0.00 62 1026.5
20260906152017 57 0 0.0 0.0 0.00 0.00 0.00 60 1026.6
20260906151538 56 0 0.0 0.0 0.00 0.00 0.00 60 1026.6
20260906151018 56 0 0.0 2.0 0.00 0.00 0.00 59 1026.5
20260906150518 56 0 0.0 2.0 0.00 0.00 0.00 60 1026.4
20260906150035 56 69 0.0 1.0 0.00 0.00 0.00 58 1026.4
20260906145519 56 0 0.0 0.0 0.00 0.00 0.00 61 1026.4
20260906145018 56 0 0.0 1.0 0.00 0.00 0.00 59 1026.4
20260906144537 56 0 0.0 2.0 0.00 0.00 0.00 58 1026.4
20260906144018 56 0 0.0 2.0 0.00 0.00 0.00 56 1026.4
20260906143516 56 0 0.0 2.0 0.00 0.00 0.00 55 1026.4
20260906143037 56 0 0.0 2.0 0.00 0.00 0.00 56 1026.4
20260906142518 56 0 0.0 2.0 0.00 0.00 0.00 56 1026.4
20260906142020 56 69 0.0 2.0 0.00 0.00 0.00 56 1026.3
20260906141539 55 0 0.0 2.0 0.00 0.00 0.00 55 1026.2
20260906141018 55 0 0.0 2.0 0.00 0.00 0.00 57 1026.2
20260906140518 54 0 0.0 2.0 0.00 0.00 0.00 59 1026.3
20260906140036 53 69 1.0 2.0 0.00 0.00 0.00 58 1026.3
20260906135524 53 69 0.0 2.0 0.00 0.00 0.00 59 1026.5
20260906135022 52 69 0.0 2.0 0.00 0.00 0.00 61 1026.6
20260906134535 51 69 0.0 2.0 0.00 0.00 0.00 62 1026.5
20260906134021 50 69 0.0 2.0 0.00 0.00 0.00 65 1026.5
20260906133517 49 71 0.0 2.0 0.00 0.00 0.00 66 1026.5
20260906133036 48 71 0.0 2.0 0.00 0.00 0.00 68 1026.5
20260906132517 47 0 0.0 0.0 0.00 0.00 0.00 68 1026.4
20260906132019 47 0 0.0 0.0 0.00 0.00 0.00 69 1026.4
20260906131542 47 0 0.0 0.0 0.00 0.00 0.00 67 1026.4
20260906131020 47 0 0.0 0.0 0.00 0.00 0.00 67 1026.4
20260906130517 47 0 0.0 1.0 0.00 0.00 0.00 67 1026.2
20260906130036 47 0 0.0 1.0 0.00 0.00 0.00 67 1026.1
20260906125518 47 0 0.0 0.0 0.00 0.00 0.00 67 1026.1
20260906125019 47 0 0.0 0.0 0.00 0.00 0.00 66 1026.0
20260906124534 47 0 0.0 2.0 0.00 0.00 0.00 67 1025.9
20260906124019 48 0 0.0 2.0 0.00 0.00 0.00 66 1025.9
20260906123518 48 0 0.0 0.0 0.00 0.00 0.00 66 1025.9
20260906123034 48 0 0.0 0.0 0.00 0.00 0.00 66 1025.9
20260906122519 48 0 0.0 0.0 0.00 0.00 0.00 65 1025.9
20260906122018 48 0 0.0 0.0 0.00 0.00 0.00 65 1025.9
20260906121536 48 0 0.0 0.0 0.00 0.00 0.00 64 1025.8
20260906121019 48 0 0.0 0.0 0.00 0.00 0.00 65 1025.8
20260906120519 48 0 0.0 0.0 0.00 0.00 0.00 64 1025.7
20260906120036 48 0 0.0 0.0 0.00 0.00 0.00 64 1025.7
20260906115518 48 0 0.0 0.0 0.00 0.00 0.00 65 1025.7
20260906115018 48 0 0.0 2.0 0.00 0.00 0.00 66 1025.6
20260906114536 48 0 0.0 2.0 0.00 0.00 0.00 66 1025.6
20260906114020 48 0 0.0 0.0 0.00 0.00 0.00 66 1025.7
20260906113523 48 0 0.0 0.0 0.00 0.00 0.00 66 1025.5
20260906113043 48 0 0.0 0.0 0.00 0.00 0.00 66 1025.6
20260906112527 48 0 0.0 0.0 0.00 0.00 0.00 66 1025.6
20260906112020 48 0 0.0 0.0 0.00 0.00 0.00 66 1025.6
20260906111537 48 0 0.0 0.0 0.00 0.00 0.00 66 1025.7
20260906111016 48 0 0.0 0.0 0.00 0.00 0.00 65 1025.7
20260906110518 49 0 0.0 0.0 0.00 0.00 0.00 64 1025.6
20260906110034 49 0 0.0 0.0 0.00 0.00 0.00 65 1025.6
20260906105516 49 0 0.0 0.0 0.00 0.00 0.00 64 1025.5
20260906105016 49 0 0.0 2.0 0.00 0.00 0.00 65 1025.5
20260906104537 49 0 0.0 2.0 0.00 0.00 0.00 65 1025.4
20260906104018 49 0 0.0 2.0 0.00 0.00 0.00 65 1025.4
20260906103519 49 0 0.0 0.0 0.00 0.00 0.00 64 1025.4
20260906103035 49 0 0.0 2.0 0.00 0.00 0.00 65 1025.3
20260906102518 49 0 0.0 2.0 0.00 0.00 0.00 65 1025.3
20260906102019 49 0 0.0 2.0 0.00 0.00 0.00 65 1025.3
20260906101538 49 0 0.0 2.0 0.00 0.00 0.00 65 1025.3
20260906101019 49 0 0.0 2.0 0.00 0.00 0.00 65 1025.3
20260906100524 49 0 0.0 2.0 0.00 0.00 0.00 64 1025.3
20260906100034 49 0 0.0 0.0 0.00 0.00 0.00 64 1025.3
20260906095518 49 0 0.0 0.0 0.00 0.00 0.00 65 1025.4
20260906095016 49 0 0.0 0.0 0.00 0.00 0.00 64 1025.4
20260906094539 49 0 0.0 0.0 0.00 0.00 0.00 64 1025.4
20260906094018 49 0 0.0 2.0 0.00 0.00 0.00 65 1025.4
20260906093522 50 0 0.0 2.0 0.00 0.00 0.00 65 1025.4
20260906093040 50 0 0.0 2.0 0.00 0.00 0.00 65 1025.3
20260906092519 50 0 0.0 0.0 0.00 0.00 0.00 65 1025.3
20260906092019 50 0 0.0 0.0 0.00 0.00 0.00 65 1025.3
20260906091536 50 0 0.0 0.0 0.00 0.00 0.00 65 1025.4
20260906091018 50 0 0.0 1.0 0.00 0.00 0.00 65 1025.4
20260906090518 50 0 0.0 1.0 0.00 0.00 0.00 64 1025.4
20260906090036 50 0 0.0 0.0 0.00 0.00 0.00 65 1025.5
20260906085518 50 0 0.0 0.0 0.00 0.00 0.00 65 1025.5
20260906085017 50 0 0.0 0.0 0.00 0.00 0.00 65 1025.4
20260906084545 50 0 0.0 0.0 0.00 0.00 0.00 65 1025.5
20260906084020 50 0 0.0 0.0 0.00 0.00 0.00 65 1025.6
20260906083520 50 0 0.0 0.0 0.00 0.00 0.00 64 1025.7
20260906083039 50 0 0.0 0.0 0.00 0.00 0.00 64 1025.7
20260906082519 50 0 0.0 2.0 0.00 0.00 0.00 64 1025.7
20260906082022 50 0 0.0 2.0 0.00 0.00 0.00 64 1025.7
20260906081537 50 0 0.0 2.0 0.00 0.00 0.00 64 1025.8
20260906081019 50 0 0.0 1.0 0.00 0.00 0.00 64 1025.9
20260906080518 50 0 0.0 1.0 0.00 0.00 0.00 65 1025.9
20260906080036 50 0 0.0 2.0 0.00 0.00 0.00 64 1026.1
20260906075517 51 0 0.0 2.0 0.00 0.00 0.00 65 1026.0
20260906075016 51 0 0.0 2.0 0.00 0.00 0.00 64 1026.0
20260906074533 50 0 0.0 0.0 0.00 0.00 0.00 64 1026.0
20260906074020 50 0 0.0 0.0 0.00 0.00 0.00 64 1026.0
20260906073519 51 0 0.0 0.0 0.00 0.00 0.00 65 1026.0
20260906073041 51 0 0.0 1.0 0.00 0.00 0.00 64 1026.0
20260906072518 51 0 0.0 1.0 0.00 0.00 0.00 65 1026.1
20260906072018 51 0 0.0 0.0 0.00 0.00 0.00 65 1026.1
20260906071550 51 0 0.0 0.0 0.00 0.00 0.00 64 1026.0
20260906071019 51 0 0.0 0.0 0.00 0.00 0.00 64 1026.0
20260906070516 51 0 0.0 0.0 0.00 0.00 0.00 64 1026.1
20260906070035 51 0 0.0 0.0 0.00 0.00 0.00 64 1026.2
20260906065518 51 0 0.0 2.0 0.00 0.00 0.00 63 1026.1
20260906065020 51 0 0.0 2.0 0.00 0.00 0.00 64 1026.1
20260906064535 51 0 0.0 2.0 0.00 0.00 0.00 63 1026.1
20260906064018 51 71 0.0 2.0 0.00 0.00 0.00 64 1026.1
20260906063520 51 0 0.0 1.0 0.00 0.00 0.00 64 1026.1
20260906063033 51 0 0.0 0.0 0.00 0.00 0.00 64 1026.1
20260906062519 51 0 0.0 0.0 0.00 0.00 0.00 63 1026.1
20260906062018 51 0 0.0 0.0 0.00 0.00 0.00 64 1026.2
20260906061537 51 0 0.0 0.0 0.00 0.00 0.00 64 1026.3
20260906061017 51 0 0.0 0.0 0.00 0.00 0.00 63 1026.3
20260906060520 51 0 0.0 0.0 0.00 0.00 0.00 63 1026.3
20260906060036 51 0 0.0 0.0 0.00 0.00 0.00 63 1026.3
20260906055517 51 0 0.0 2.0 0.00 0.00 0.00 64 1026.3
20260906055017 51 0 0.0 2.0 0.00 0.00 0.00 63 1026.3
20260906054534 51 0 0.0 0.0 0.00 0.00 0.00 63 1026.4
20260906054018 51 0 0.0 2.0 0.00 0.00 0.00 62 1026.4
20260906053519 52 0 0.0 2.0 0.00 0.00 0.00 62 1026.4
20260906053034 51 0 0.0 2.0 0.00 0.00 0.00 62 1026.4
20260906052521 52 0 0.0 0.0 0.00 0.00 0.00 62 1026.4
20260906052021 52 0 0.0 0.0 0.00 0.00 0.00 61 1026.3
20260906051536 52 0 0.0 0.0 0.00 0.00 0.00 61 1026.3
20260906051020 52 0 0.0 0.0 0.00 0.00 0.00 60 1026.3
20260906050519 52 0 0.0 0.0 0.00 0.00 0.00 61 1026.4
20260906050036 52 0 0.0 0.0 0.00 0.00 0.00 60 1026.4
20260906045516 52 0 0.0 0.0 0.00 0.00 0.00 60 1026.4
20260906045016 52 0 0.0 0.0 0.00 0.00 0.00 60 1026.4
20260906044533 52 0 0.0 2.0 0.00 0.00 0.00 60 1026.4
20260906044016 53 0 0.0 2.0 0.00 0.00 0.00 60 1026.4
20260906043516 53 0 0.0 0.0 0.00 0.00 0.00 60 1026.4
20260906043034 53 0 0.0 0.0 0.00 0.00 0.00 59 1026.4
20260906042520 53 0 0.0 0.0 0.00 0.00 0.00 58 1026.4
20260906042018 54 0 0.0 0.0 0.00 0.00 0.00 55 1026.4
20260906041535 54 0 0.0 0.0 0.00 0.00 0.00 55 1026.4
20260906041022 54 0 0.0 0.0 0.00 0.00 0.00 55 1026.4
20260906040518 54 0 0.0 0.0 0.00 0.00 0.00 55 1026.4
20260906040038 55 0 0.0 0.0 0.00 0.00 0.00 54 1026.4
20260906035518 55 0 0.0 0.0 0.00 0.00 0.00 55 1026.3
20260906035019 55 0 0.0 0.0 0.00 0.00 0.00 54 1026.3
20260906034543 56 0 0.0 0.0 0.00 0.00 0.00 52 1026.2
20260906034017 56 0 0.0 0.0 0.00 0.00 0.00 50 1026.3
20260906033518 57 0 0.0 0.0 0.00 0.00 0.00 50 1026.1
20260906033035 57 0 0.0 0.0 0.00 0.00 0.00 49 1026.1
20260906032519 57 0 0.0 0.0 0.00 0.00 0.00 47 1026.1
20260906032019 58 0 0.0 0.0 0.00 0.00 0.00 47 1026.0
20260906031536 58 0 0.0 0.0 0.00 0.00 0.00 44 1025.9
20260906031016 59 0 0.0 0.0 0.00 0.00 0.00 46 1025.8
20260906030518 59 0 0.0 0.0 0.00 0.00 0.00 45 1025.7
20260906030036 60 0 0.0 2.0 0.00 0.00 0.00 45 1025.7
20260906025517 61 0 0.0 2.0 0.00 0.00 0.00 43 1025.7
20260906025020 61 0 0.0 2.0 0.00 0.00 0.00 44 1025.6
20260906024534 62 0 0.0 2.0 0.00 0.00 0.00 45 1025.6
20260906024018 63 71 0.0 2.0 0.00 0.00 0.00 42 1025.6
20260906023520 63 72 0.0 2.0 0.00 0.00 0.00 40 1025.5
20260906023036 64 0 0.0 2.0 0.00 0.00 0.00 39 1025.4
20260906022516 65 0 0.0 2.0 0.00 0.00 0.00 38 1025.3
20260906022016 66 0 0.0 1.0 0.00 0.00 0.00 38 1025.3
20260906021537 66 0 0.0 1.0 0.00 0.00 0.00 36 1025.2
20260906021016 67 0 0.0 1.0 0.00 0.00 0.00 36 1025.3
20260906020518 67 0 0.0 1.0 0.00 0.00 0.00 34 1025.1
20260906020039 68 0 0.0 0.0 0.00 0.00 0.00 33 1025.2
20260906015519 69 0 0.0 0.0 0.00 0.00 0.00 34 1025.2
20260906015019 70 0 0.0 0.0 0.00 0.00 0.00 31 1025.1
20260906014548 71 0 0.0 0.0 0.00 0.00 0.00 31 1025.1
20260906014023 71 0 0.0 2.0 0.00 0.00 0.00 30 1025.1
20260906013519 72 0 0.0 2.0 0.00 0.00 0.00 29 1025.1
20260906013035 72 192 0.0 2.0 0.00 0.00 0.00 29 1025.1
20260906012519 73 229 0.0 2.0 0.00 0.00 0.00 29 1025.1
20260906012017 73 244 1.0 4.0 0.00 0.00 0.00 29 1025.1
20260906011539 74 237 0.0 4.0 0.00 0.00 0.00 29 1025.1
20260906011017 74 246 1.0 4.0 0.00 0.00 0.00 28 1025.1
20260906010520 74 273 1.0 3.0 0.00 0.00 0.00 29 1025.1
20260906010034 75 273 1.0 2.0 0.00 0.00 0.00 27 1025.1
20260906005517 75 281 0.0 5.0 0.00 0.00 0.00 28 1025.1
20260906005023 76 281 1.0 5.0 0.00 0.00 0.00 28 1025.1
20260906004541 76 284 1.0 5.0 0.00 0.00 0.00 28 1025.2
20260906004016 76 276 1.0 6.0 0.00 0.00 0.00 28 1025.2
20260906003516 76 222 1.0 5.0 0.00 0.00 0.00 28 1025.1
20260906003047 76 271 1.0 4.0 0.00 0.00 0.00 28 1025.0
20260906002517 77 281 1.0 4.0 0.00 0.00 0.00 29 1025.1
20260906002018 77 273 1.0 4.0 0.00 0.00 0.00 28 1025.1
20260906001533 77 251 1.0 3.0 0.00 0.00 0.00 29 1025.2
20260906001019 77 271 1.0 7.0 0.00 0.00 0.00 28 1025.1
20260906000523 77 248 2.0 7.0 0.00 0.00 0.00 28 1025.0
20260906000035 77 277 1.0 6.0 0.00 0.00 0.00 28 1025.0
20260905235519 78 238 1.0 4.0 0.00 0.00 0.00 28 1025.0
20260905235018 78 281 1.0 4.0 0.00 0.00 0.00 29 1025.0
20260905234536 78 283 2.0 4.0 0.00 0.00 0.00 29 1025.0
20260905234023 79 254 1.0 4.0 0.00 0.00 0.00 28 1025.0
20260905233518 79 250 1.0 6.0 0.00 0.00 0.00 28 1025.0
20260905233033 79 267 2.0 6.0 0.00 0.00 0.00 29 1025.0
20260905232521 80 226 1.0 7.0 0.00 0.00 0.00 28 1025.0
20260905232022 80 265 2.0 7.0 0.00 0.00 0.00 28 1025.0
20260905231539 79 0 0.0 7.0 0.00 0.00 0.00 28 1025.0